Torna al catalogo

COSMOS 1522

AttivoNavigazioneLEO
NORAD 14611·PAYLOAD·🇷🇺 Russia

Lanciato Jan 5, 1984 da Plesetsk Cosmodrome

Loading…

Prossimi Passaggi (prossime 24 ore)

TLE

AggiornatoSource: Space-Track

Epoca: Sep 14, 2026, 14:42 UTC

1 14611U 84001A   26257.61306495 -.00000005  00000-0  74619-4 0  9999
2 14611  74.0081 304.2079 0019477  45.6650 122.2762 12.47066901943514

Traccia COSMOS 1522 in tempo reale con AllMySat

Download on the App Store